Погода в Среднеаргунске

Россия / Забайкальский край     49°44′43″N   118°15′29″E
темп.,
°C
ветер,
м/с
пор.,
м/с
влажн.,
%
обл.,
%
осадки,
мм/ч
давл.,
гПа
погр.,
м
24 января, вс
вс2400:00−16ююз118636 0.0 102420
03:00−17вюв008960 0.0 102520
06:00−17всв129133 0.0 102520
09:00−18св239428 0.0 102820
12:00−15св4591100 0.0 1028202
15:00−14св468797 0.0 1028286
18:00−16св4794100 0.0 1029136
21:00−17св3595100 0.0 1029112
25 января, пн
пн2500:00−17св4695100 0.0 1029112
03:00−18св4695100 0.0 102997
06:00−17св5796100 0.0 1026130
09:00−18св61095100 0.0 1023208
12:00−16всв71087100 0.0 1020350
15:00−14всв6989100 0.1 1014349
18:00−13всв6996100 0.9 1012292
21:00−12зюз1296100 2.4 101162
26 января, вт
вт2600:00−15зсз71190100 0.4 1011366
03:00−17з5991100 0.6 1012317
06:00−20з71286100 0.1 1013405
09:00−21зсз81484100 0.1 1015483
12:00−21зсз81178100 0.0 1017760
15:00−20зсз81175100 0.0 10171163
18:00−22зсз41081100 0.0 1018726
21:00−23зсз41083100 0.0 1019344
27 января, ср
ср2700:00−22з4989100 0.0 1020267
03:00−21з4990100 0.0 1021228
06:00−22зсз61286100 0.0 1022309
09:00−24зсз5128799 0.0 1024241
12:00−22зсз468396 0.0 1025303
15:00−21зсз578293 0.0 1024452
18:00−23зсз478796 0.0 1026141
21:00−24сз358797 0.0 102788
28 января, чт
чт2800:00−26ссз2290100 0.0 102819
03:00−27сз228598 0.0 102819
06:00−27сз348599 0.0 102872
09:00−28ссз337997 0.0 103034
12:00−25ссз127450 0.0 1030258
15:00−23зсз247165 0.0 1029686
18:00−28зсз338821 0.0 103126
21:00−30зсз228612 0.0 103219